NOVA 2

导读

NOVA 2(诺瓦2号)是美国无线电公司研发的诺瓦卫星系列导航卫星,于1988年6月16日9时,由侦察兵-G1运载火箭从范登堡空军基地SLC-5发射升空。卫星质量170千克,运行在近地点1155千米、远地点1199千米,倾角90.01°的轨道上,国际卫星标识符为1988-052A,NORAD编号19223,承担导航任务。

基本信息
目录编号:
19223
目录名称:
NOVA 2
国际标识:
1988-052A
轨道中心:
EARTH
卫星名称:
NOVA 2
卫星全名:
--
卫星状态:
在轨 (已飞行13907 天)
发射日期:
1988-06-16 UTC
国别 :
美国 (US)
星等 :
--
轨道信息
数据来源 国际轨道数据 AOE轨道数据
星历时间 2026-07-13T23:58:29+0800
15小时前
查看轨道信息
2026-07-11T00:00:00+0800
3天前
查看轨道信息
半长轴 7551.574km 7551.576km
偏心率 0.003131 0.003077
轨道倾角 89.984° 89.986°
近地点辐角 143.694° 150.870°
升交点赤经 77.929° 77.935°
平近点角 269.955° 28.090°
近地点 1149.793km 1150.202km
远地点 1197.081km 1196.676km
周期 108.847分钟 108.847分钟
每日圈数 13.229595 13.229592
详细信息
使用方式:
暂无
2D轨道图
3D轨道图
轨道高度分析图
轨道倾角分析图
轨道综合分析图
查看轨道综合分析图